Regional Weather Roundup
Issued by NWS

Home | Current Version | Previous Version | Text Only | Print | Product List | Glossary Off
Versions: 1 2 3 4 5 6 7 8 9 10 11 12 13 14 15 16 17 18 19 20 21 22 23 24 25 26 27 28 29 30 31 32 33 34 35 36 37 38 39 40 41 42 43 44 45 46 47 48 49 50

000
ASUS45 KCYS 010910
RWRWY

WYOMING REGIONAL WEATHER ROUNDUP
NATIONAL WEATHER SERVICE CHEYENNE WY
300 AM MDT WED OCT 01 2014

NOTE:  "FAIR" INDICATES FEW OR NO CLOUDS BELOW 12,000 FEET
WITH NO SIGNIFICANT WEATHER AND/OR OBSTRUCTIONS TO VISIBILITY.

WYZ001-011000-
YELLOWSTONE NATIONAL PARK

CITY           SKY/WX    TMP DP  RH WIND       PRES   REMARKS
LK YELLOWSTONE   N/A     32  31  96 CALM      29.98R
W YELLOWSTONE  NOT AVBL

$$
WYZ002>013-054>058-071-098>099-011000-
NORTHERN WYOMING

CITY           SKY/WX    TMP DP  RH WIND       PRES   REMARKS
JACKSON        CLOUDY    37  36  93 S6        29.95R WCI  33
CODY           CLOUDY    45  41  87 SW5       29.88F
GREYBULL       LGT RAIN  49  43  80 W9        29.85R
WORLAND        LGT RAIN  47  42  83 NW10      29.86S
SHERIDAN       CLOUDY    50  41  71 NW15      29.85R
BUFFALO        CLOUDY    48  39  71 N12G24    29.85R
GILLETTE       CLOUDY    48  45  89 W12       29.83R
HULETT         CLOUDY    50  45  81 W5        29.81
NEWCASTLE      FAIR      48  43  81 NW7       29.82

$$
WYZ014>020-022>026-101>103-011000-
CENTRAL WYOMING

CITY           SKY/WX    TMP DP  RH WIND       PRES   REMARKS
BIG PINEY      PTCLDY    30  25  81 N7        29.97S WCI  23
PINEDALE       MOSUNNY   32  30  93 CALM      29.97F
DUBOIS         FAIR      34  27  75 NW14      29.92R WCI  24
LANDER         MOCLDY    45  35  68 NW6       29.87R
RIVERTON       MOCLDY    46  41  82 N10       29.87R
CASPER         LGT RAIN  47  41  80 S8        29.85R
DOUGLAS        CLOUDY    47  43  86 CALM      29.86R

$$
WYZ021-027>030-104>119-011000-
SOUTHERN WYOMING

CITY           SKY/WX    TMP DP  RH WIND       PRES   REMARKS
EVANSTON       MOCLDY    38  33  82 W7        30.00S WCI  33
KEMMERER       PTSUNNY   32  32 100 W5        30.00S WCI  27
FORT BRIDGER     N/A     38  37  97 W5        30.01F WCI  34
ROCK SPRINGS   PTCLDY    38  35  89 SW12      29.97S WCI  30
DIXON          CLOUDY    44  41  86 CALM      30.00S
RAWLINS        PTCLDY    40  35  83 SW17      29.93F WCI  31
SARATOGA       FAIR      41  37  87 SW8G16    29.96F
LARAMIE        MOCLDY    41  33  73 S6        29.94R
CHEYENNE       CLEAR     47  35  63 W12       29.89S
TORRINGTON     CLEAR     53  43  68 NW10      29.81R
PINE BLUFFS    FAIR      41  37  87 W6        29.88R

$$



USA.gov is the U.S. government's official web portal to all federal, state and local government web resources and services.